Regional Weather Roundup
Issued by NWS

Home | Current Version | Previous Version | Graphics & Text | Print | Product List | Glossary On
Versions: 1 2 3 4 5 6 7 8 9 10 11 12 13 14 15 16 17 18 19 20 21 22 23 24 25 26 27 28 29 30 31 32 33 34 35 36 37 38 39 40 41 42 43 44 45 46 47 48 49 50
000
ASUS43 KFSD 151310
RWRSD

WEATHER ROUNDUP FOR SOUTH DAKOTA
NATIONAL WEATHER SERVICE SIOUX FALLS SD
800 AM CDT TUE APR 15 2014

NOTE: "FAIR" INDICATES FEW OR NO CLOUDS BELOW 12,000 FEET WITH NO
SIGNIFICANT WEATHER AND/OR OBSTRUCTIONS TO VISIBILITY.


SDZ001>005-009-010-012>017-151400-
NORTHWEST AND NORTH CENTRAL SOUTH DAKOTA

CITY           SKY/WX    TMP DP  RH WIND       PRES   REMARKS
BUFFALO          N/A     22  13  68 SE14      29.72F WCI   9
FAITH            N/A     22  13  68 SE21      29.84F WCI   6
MOBRIDGE       CLOUDY    22  12  65 SE17      29.98F WCI   8
$$

SDZ012>016-024>037-041>051-057-063-072>074-151400-
SOUTHWEST AND SOUTH CENTRAL SOUTH DAKOTA

CITY           SKY/WX    TMP DP  RH WIND       PRES   REMARKS
RAPID CTY ARPT PTCLDY    22  15  75 E3        29.80F
PIERRE         SUNNY     23  19  85 SE16      30.00F WCI  10
CUSTER         PTCLDY    29  14  53 W9        29.81F WCI  20
ELLSWORTH AFB  PTCLDY    25  15  66 W1        29.79F
PHILIP         CLEAR     22  14  71 E7        29.89F WCI  13
PINE RIDGE     PTCLDY    31  22  69 S10       29.86F WCI  22
SPEARFISH      FAIR      39  16  38 CALM      29.77F
WINNER         FAIR      27  13  55 SE13      30.00F WCI  16
$$

SDZ004>011-016>023-039-040-151400-
NORTHEAST SOUTH DAKOTA

CITY           SKY/WX    TMP DP  RH WIND       PRES   REMARKS
ABERDEEN       SUNNY     15  12  88 E8        30.13S WCI   4
WATERTOWN      SUNNY     17  12  80 SE6       30.12S WCI   9
SISSETON         N/A     18  10  71 CALM      30.17R
$$

SDZ017-020-022-023-036>040-048>070-151400-
SOUTHEAST SOUTH DAKOTA

CITY           SKY/WX    TMP DP  RH WIND       PRES   REMARKS
SIOUX FALLS    SUNNY     19  17  92 CALM      30.16R
HURON          SUNNY     20  15  81 SE9       30.13S WCI   9
CHAMBERLAIN      N/A     23  19  85 SE14      30.06F WCI  11
MITCHELL       SUNNY     21  18  88 S10       30.15S WCI  10
YANKTON        SUNNY     19  16  86 E5        30.17S WCI  13
$$

ABBREVIATIONS USED IN REMARKS
   TC - TEMPERATURE IN CELSIUS
  WCI - WIND CHILL INDEX
   HX - HEAT INDEX
  VSB - VISIBILITY




USA.gov is the U.S. government's official web portal to all federal, state and local government web resources and services.